Date,TemperatureHighF,TemperatureAvgF,TemperatureLowF,DewpointHighF,DewpointAvgF,DewpointLowF,HumidityHigh,HumidityAvg,HumidityLow,PressureMaxIn,PressureMinIn,WindSpeedMaxMPH,WindSpeedAvgMPH,GustSpeedMaxMPH,PrecipitationSumIn
2013-1-1,30.0,28.1,27.0,25.1,23.4,21.7,90,83,74,29.22,29.07,12,4,12,0.00
2013-1-2,31.0,27.8,25.0,24.9,22.8,20.1,90,81,72,29.21,29.07,12,5,12,0.00
2013-1-3,28.0,21.6,16.0,23.9,18.2,13.1,93,87,72,29.07,28.94,13,4,15,0.00
2013-1-4,29.0,25.1,18.0,25.4,21.5,16.3,93,87,76,29.03,28.97,12,4,13,0.00
2013-1-5,32.0,28.7,27.0,28.3,26.5,24.5,94,91,85,28.98,28.79,12,5,13,0.01
2013-1-6,30.0,27.7,27.0,28.0,26.1,25.5,94,94,90,28.81,28.66,11,2,12,0.00
2013-1-7,33.0,29.2,26.0,31.7,27.8,24.5,95,94,93,28.66,28.44,10,2,10,0.01
2013-1-8,46.0,35.0,24.0,41.5,33.5,22.5,96,94,82,28.69,28.35,28,4,28,0.02
2013-1-9,49.0,43.1,33.0,41.1,34.4,25.0,85,71,58,28.38,28.16,34,7,34,0.01
2013-1-10,38.0,32.7,28.0,32.5,22.0,13.6,94,66,46,28.58,28.38,31,9,31,0.00
2013-1-11,36.0,28.5,18.0,21.1,17.8,13.0,93,65,49,28.86,28.58,23,8,31,0.00
2013-1-12,28.0,18.9,14.0,17.0,14.7,12.4,93,84,62,28.99,28.86,14,4,15,0.00
2013-1-13,29.0,21.5,16.0,19.8,16.4,13.6,93,81,57,29.07,28.97,10,2,10,0.00
2013-1-14,33.0,25.2,19.0,24.0,21.4,17.3,93,86,69,29.09,28.91,12,3,12,0.00
2013-1-15,34.0,22.4,17.0,24.5,19.0,15.3,93,87,68,29.21,29.08,10,3,10,0.00
2013-1-16,32.0,26.7,17.0,28.0,23.7,15.3,94,89,83,29.23,29.13,10,2,10,0.00
2013-1-17,28.0,25.5,20.0,25.4,23.5,18.3,94,92,88,29.18,29.00,9,3,9,0.00
2013-1-18,29.0,27.0,26.0,26.7,25.2,24.5,94,93,90,29.00,28.89,10,3,10,0.00
2013-1-19,29.0,25.3,20.0,25.9,22.9,17.8,94,91,83,29.07,28.96,11,4,12,0.00
2013-1-20,27.0,25.1,23.0,24.5,23.3,21.3,94,93,89,29.15,29.05,11,4,12,0.00
2013-1-21,24.0,22.2,21.0,22.5,20.4,18.3,94,93,88,29.05,28.95,11,4,11,0.00
2013-1-22,24.0,21.6,19.0,21.5,19.5,17.3,93,92,85,28.98,28.82,9,2,9,0.00
2013-1-23,27.0,23.7,20.0,24.2,21.4,18.3,94,91,86,28.83,28.58,13,3,13,0.00
2013-1-24,31.0,25.4,15.0,28.2,23.5,13.3,94,92,89,28.89,28.70,13,4,13,0.00
2013-1-25,35.0,30.1,26.0,31.7,28.4,24.5,95,93,85,28.77,28.56,9,2,10,0.00
2013-1-26,33.0,31.0,30.0,30.5,29.3,28.4,95,93,88,28.61,28.53,10,3,10,0.00
2013-1-27,33.0,31.3,30.0,31.7,29.9,28.7,95,94,89,28.64,28.55,10,3,10,0.00
2013-1-28,34.0,31.2,28.0,32.2,29.6,26.5,95,94,89,28.57,28.47,9,2,9,0.00
2013-1-29,41.0,33.0,26.0,33.8,29.5,24.5,95,87,69,28.79,28.50,10,3,11,0.00
2013-1-30,58.0,39.6,31.0,35.9,32.7,29.7,95,80,41,28.84,28.69,9,2,10,0.00
2013-1-31,43.0,35.8,28.0,39.4,33.8,26.5,96,92,84,28.86,28.78,10,2,13,0.00
2013-2-1,52.0,33.7,23.0,39.4,29.8,21.3,95,87,56,29.06,28.81,9,3,10,0.00
2013-2-2,47.0,31.7,22.0,37.5,28.1,20.3,95,87,67,29.07,28.87,11,4,11,0.00
2013-2-3,36.0,30.2,22.0,33.7,28.4,20.3,95,93,85,28.87,28.73,8,2,9,0.00
2013-2-4,40.0,32.8,29.0,35.2,31.0,27.5,95,93,84,28.75,28.55,10,3,10,0.00
2013-2-5,48.0,34.5,25.0,39.8,32.1,23.5,96,91,70,28.55,28.42,11,3,13,0.00
2013-2-6,49.0,40.9,26.0,36.2,33.4,24.5,95,76,55,28.62,28.49,16,6,16,0.00
2013-2-7,50.0,38.6,30.0,35.6,32.6,27.5,95,80,48,28.67,28.46,13,2,15,0.00
2013-2-8,47.0,33.3,22.0,34.7,27.5,20.3,95,82,44,28.77,28.66,13,3,15,0.00
2013-2-9,45.0,30.9,22.0,35.2,26.8,20.3,95,86,60,28.80,28.67,12,2,12,0.00
2013-2-10,50.0,34.0,23.0,32.6,27.4,21.3,94,79,44,28.88,28.78,9,3,9,0.00
2013-2-11,43.0,30.7,21.0,33.0,27.1,19.3,95,87,65,28.85,28.78,12,3,15,0.00
2013-2-12,49.0,36.9,25.0,37.2,31.3,23.5,95,81,61,28.90,28.73,18,4,22,0.00
2013-2-13,55.0,45.5,32.0,37.5,32.2,26.0,84,61,39,28.96,28.71,25,6,25,0.00
2013-2-14,53.0,37.6,27.0,36.1,31.3,24.7,95,80,49,29.12,28.96,9,3,9,0.00
2013-2-15,54.0,37.0,25.0,37.5,31.0,23.5,95,81,50,29.14,28.85,9,3,10,0.00
2013-2-16,54.0,38.1,24.0,39.5,30.4,22.5,95,76,39,28.85,28.53,26,5,29,0.00
2013-2-17,54.0,40.0,30.0,31.6,27.8,23.6,90,64,34,28.70,28.59,16,4,16,0.00
2013-2-18,44.0,34.5,24.0,33.3,29.1,22.5,95,81,59,28.68,28.40,15,4,15,0.00
2013-2-19,48.0,35.6,27.0,33.7,30.1,25.5,95,82,54,28.52,28.35,13,4,16,0.00
2013-2-20,47.0,36.0,26.0,30.3,26.0,21.4,90,69,42,28.62,28.52,13,3,16,0.00
2013-2-21,49.0,35.4,23.0,33.9,29.2,21.3,95,80,48,28.63,28.52,18,4,18,0.00
2013-2-22,48.0,41.8,37.0,37.9,33.3,22.8,83,72,52,28.55,28.22,33,9,34,0.00
2013-2-23,53.0,41.2,33.0,30.7,25.3,21.0,77,55,31,28.84,28.36,27,8,27,0.00
2013-2-24,46.0,36.6,28.0,30.7,27.9,24.6,90,72,49,28.88,28.61,17,4,21,0.00
2013-2-25,49.0,40.8,34.0,36.2,29.3,22.9,94,66,38,28.75,28.48,36,9,40,0.01
2013-2-26,49.0,37.9,26.0,29.8,26.3,22.0,91,65,37,28.89,28.75,16,4,17,0.00
2013-2-27,53.0,39.1,24.0,34.6,29.0,22.3,94,69,40,28.87,28.77,11,3,11,0.00
2013-2-28,47.0,43.0,38.0,45.4,41.0,33.3,97,93,70,28.91,28.80,9,3,13,0.14
2013-3-1,57.0,50.2,42.0,48.4,44.6,40.9,97,82,65,28.91,28.81,23,6,24,0.01
2013-3-2,55.0,48.5,43.0,46.0,42.3,33.1,96,80,60,28.82,28.49,19,5,22,0.00
2013-3-3,52.0,42.0,32.0,33.5,23.5,15.5,76,50,25,28.81,28.57,24,8,24,0.00
2013-3-4,51.0,36.3,23.0,29.3,24.5,19.7,94,66,30,28.89,28.65,10,3,12,0.00
2013-3-5,45.0,37.2,29.0,36.2,30.1,24.8,95,76,49,28.65,28.40,16,6,17,0.03
2013-3-6,45.0,38.3,32.0,42.1,36.5,30.7,96,93,81,28.44,28.18,15,6,15,0.40
2013-3-7,55.0,43.8,32.0,38.8,35.3,30.5,96,75,41,28.67,28.44,16,6,16,0.01
2013-3-8,55.0,38.9,28.0,38.7,32.5,26.5,95,80,46,28.75,28.61,16,5,17,0.02
2013-3-9,57.0,41.1,26.0,36.2,30.3,24.5,95,69,30,28.95,28.75,12,3,12,0.00
2013-3-10,53.0,39.9,27.0,38.0,32.2,25.5,95,76,48,28.99,28.80,14,2,14,0.00
2013-3-11,58.0,43.7,31.0,36.2,30.1,23.9,95,63,28,28.93,28.77,13,3,14,0.00
2013-3-12,58.0,49.8,42.0,45.3,41.1,31.0,96,73,55,28.77,28.58,19,6,20,0.00
2013-3-13,62.0,54.0,46.0,46.0,43.4,40.4,85,68,51,28.70,28.63,18,6,20,0.00
2013-3-14,62.0,52.7,44.0,47.3,42.6,32.7,93,70,37,28.67,28.50,14,4,19,0.00
2013-3-15,65.0,53.7,45.0,43.3,39.4,34.1,85,61,35,28.77,28.62,20,6,27,0.00
2013-3-16,56.0,47.6,40.0,40.6,35.7,24.7,88,65,43,28.62,28.32,37,9,37,0.00
2013-3-17,51.0,42.6,35.0,29.8,24.7,19.5,75,51,32,28.65,28.42,26,11,29,0.00
2013-3-18,54.0,43.5,34.0,29.0,24.0,16.3,72,48,24,28.79,28.58,25,10,30,0.00
2013-3-19,56.0,40.4,23.0,40.4,25.1,18.6,91,58,23,28.85,28.34,13,4,17,0.00
2013-3-20,58.0,45.7,38.0,44.7,35.8,17.9,96,72,32,28.42,28.08,32,9,40,0.06
2013-3-21,49.0,41.7,36.0,28.4,23.4,18.6,69,49,31,28.66,28.42,28,11,37,0.06
2013-3-22,49.0,38.3,27.0,26.7,22.8,16.7,83,56,29,28.88,28.65,23,5,23,0.00
2013-3-23,50.0,35.6,20.0,26.5,21.2,17.2,94,60,30,28.97,28.83,10,2,12,0.00
2013-3-24,53.0,36.9,20.0,29.8,20.7,17.3,93,58,26,28.96,28.74,15,5,17,0.00
2013-3-25,57.0,40.1,22.0,29.3,24.3,18.5,88,57,30,28.79,28.55,12,4,13,0.00
2013-3-26,61.0,45.8,29.0,35.8,29.0,24.5,85,56,31,28.63,28.49,12,4,14,0.00
2013-3-27,62.0,48.7,40.0,39.4,36.5,33.9,89,64,40,28.59,28.50,10,4,10,0.00
2013-3-28,62.0,48.3,34.0,43.8,38.4,32.7,96,72,44,28.66,28.58,11,3,13,0.00
2013-3-29,66.0,51.2,34.0,44.2,37.6,32.6,96,64,32,28.78,28.65,13,4,16,0.00
2013-3-30,70.0,51.4,32.0,42.3,35.6,29.9,95,61,25,28.88,28.65,10,4,12,0.00
2013-3-31,72.0,54.3,33.0,40.6,37.0,31.5,95,58,28,28.69,28.44,13,4,15,0.00
2013-4-1,75.0,57.4,36.0,47.0,38.7,33.3,91,55,26,28.56,28.44,14,4,17,0.00
2013-4-2,72.0,58.6,47.0,42.7,39.9,34.4,75,52,30,28.64,28.52,20,6,25,0.00
2013-4-3,66.0,55.8,42.0,41.5,38.3,34.4,82,54,32,28.69,28.52,12,4,13,0.00
2013-4-4,57.0,51.4,45.0,51.4,45.8,38.2,95,81,55,28.54,28.28,13,5,16,0.06
2013-4-5,66.0,55.0,47.0,47.0,43.3,38.5,90,66,37,28.42,28.34,24,8,27,0.00
2013-4-6,61.0,53.5,49.0,46.0,38.5,30.0,89,59,32,28.42,28.34,26,9,27,0.00
2013-4-7,55.0,48.4,41.0,46.5,38.3,30.8,97,71,40,28.39,28.07,35,10,37,0.24
2013-4-8,59.0,46.8,35.0,39.3,34.9,30.9,93,66,37,28.78,28.34,12,3,15,0.24
2013-4-9,61.0,49.7,33.0,40.4,36.2,30.7,93,62,38,28.91,28.73,13,5,16,0.00
2013-4-10,64.0,53.2,46.0,46.8,38.5,32.6,74,59,34,28.73,28.40,35,8,38,0.00
2013-4-11,60.0,49.0,41.0,37.7,31.2,22.3,78,53,25,28.73,28.61,20,7,23,0.00
2013-4-12,56.0,44.2,29.0,43.0,33.5,26.2,92,68,41,28.69,28.20,22,5,29,0.00
2013-4-13,55.0,47.1,40.0,36.5,26.7,19.8,78,47,29,28.46,28.17,34,12,35,0.02
2013-4-14,56.0,43.4,33.0,34.6,29.8,20.7,86,62,27,28.52,28.44,23,5,25,0.02
2013-4-15,54.0,43.0,31.0,35.6,28.8,20.7,95,61,29,28.72,28.49,23,8,27,0.00
2013-4-16,54.0,41.9,29.0,30.4,19.9,14.4,85,46,22,28.96,28.72,21,8,25,0.00
2013-4-17,58.0,43.0,23.0,31.7,23.0,17.8,84,50,24,29.04,28.86,15,5,16,0.00
2013-4-18,63.0,51.5,35.0,45.2,36.1,29.7,85,58,37,28.92,28.69,19,6,23,0.00
2013-4-19,66.0,55.7,47.0,48.2,42.1,37.1,94,62,39,28.69,28.46,20,9,22,0.05
2013-4-20,65.0,54.7,45.0,40.0,37.0,32.6,74,53,31,28.67,28.57,25,10,28,0.05
2013-4-21,62.0,48.9,37.0,39.6,33.9,23.3,87,58,33,28.83,28.61,30,8,36,0.00
2013-4-22,61.0,48.0,31.0,32.7,26.2,17.9,90,48,20,29.13,28.83,16,5,20,0.00
2013-4-23,64.0,48.7,34.0,35.8,27.4,23.0,67,47,22,28.95,28.75,10,3,14,0.00
2013-4-24,69.0,53.1,34.0,36.1,31.0,27.6,85,48,23,28.89,28.50,19,5,20,0.00
2013-4-25,76.0,59.8,37.0,40.2,35.2,29.8,86,43,25,28.58,28.46,16,4,17,0.00
2013-4-26,81.0,64.9,46.0,43.1,37.3,27.9,80,42,17,28.71,28.58,18,5,19,0.00
2013-4-27,70.0,61.6,52.0,41.9,35.2,26.7,67,39,24,28.66,28.54,32,10,37,0.00
2013-4-28,66.0,56.2,45.0,41.7,34.9,26.4,78,48,25,28.66,28.44,31,10,34,0.00
2013-4-29,57.0,51.5,43.0,39.1,25.8,10.4,68,40,16,28.61,28.34,37,13,39,0.00
2013-4-30,58.0,48.2,34.0,26.9,22.1,12.5,71,39,17,28.93,28.60,19,6,20,0.00
2013-5-1,63.0,49.1,29.0,30.6,25.1,20.5,80,43,21,29.21,28.93,19,4,19,0.00
2013-5-2,70.0,54.9,34.0,39.0,29.0,25.7,77,42,20,29.15,28.78,14,4,15,0.00
2013-5-3,76.0,63.7,52.0,41.8,37.1,33.1,61,40,23,28.84,28.66,25,9,28,0.00
2013-5-4,77.0,64.4,48.0,39.8,35.0,30.3,66,37,19,28.80,28.56,23,9,27,0.00
2013-5-5,81.0,65.8,48.0,38.4,34.9,32.6,57,35,18,28.61,28.32,26,8,28,0.00
2013-5-6,87.0,69.0,47.0,43.7,35.8,30.3,63,34,14,28.45,28.21,17,4,22,0.00
2013-5-7,88.0,68.4,45.0,44.7,39.6,31.1,80,41,14,28.39,28.28,13,4,13,0.00
2013-5-8,88.0,70.4,49.0,51.1,45.3,39.6,76,45,19,28.56,28.38,15,4,17,0.00
2013-5-9,89.0,73.2,51.0,50.8,44.5,35.3,84,42,16,28.61,28.45,14,3,15,0.00
2013-5-10,92.0,73.5,50.0,49.8,43.8,36.0,85,41,15,28.68,28.50,15,3,15,0.00
2013-5-11,89.0,73.8,56.0,51.9,46.7,41.3,75,42,20,28.63,28.44,15,3,15,0.00
2013-5-12,80.0,71.7,63.0,55.0,51.8,48.1,69,50,38,28.51,28.45,22,6,22,0.00
2013-5-13,68.0,62.8,52.0,54.0,45.7,30.2,75,54,35,28.67,28.42,32,10,35,0.01
2013-5-14,69.0,57.6,47.0,37.9,32.0,25.3,68,40,20,28.72,28.56,24,5,26,0.01
2013-5-15,68.0,57.4,41.0,42.8,36.9,32.7,81,49,29,28.64,28.46,14,4,14,0.00
2013-5-16,59.0,56.8,54.0,47.6,46.0,42.8,76,68,55,28.48,28.46,10,2,10,0.00
2013-6-26,76.0,68.7,61.0,58.4,55.4,49.7,89,64,44,28.60,28.50,15,4,20,0.00
2013-6-27,82.0,68.7,59.0,59.7,56.5,49.8,91,69,35,28.71,28.59,13,4,13,0.00
2013-6-28,92.0,76.1,58.0,60.6,56.5,54.1,92,56,28,28.76,28.49,12,4,13,0.00
2013-6-29,89.0,75.2,64.0,66.6,60.8,53.4,89,64,31,28.57,28.43,17,5,17,0.09
2013-6-30,97.0,80.7,61.0,66.6,59.1,49.6,97,55,21,28.56,28.39,13,4,13,0.09
2013-7-1,103.0,85.1,65.0,68.6,57.0,48.0,78,44,17,28.50,28.28,17,6,19,0.00
2013-7-2,102.0,85.4,68.0,67.2,59.8,47.4,85,46,24,28.48,28.28,17,5,17,0.00
2013-7-3,92.0,80.4,69.0,58.3,48.7,37.9,59,36,16,28.50,28.31,16,6,18,0.00
2013-7-4,87.0,75.4,61.0,52.1,44.1,35.6,66,35,20,28.43,28.25,23,8,27,0.00
2013-7-5,82.0,71.4,60.0,51.2,46.4,41.8,60,43,26,28.40,28.25,19,7,20,0.00
2013-7-6,86.0,73.0,57.0,54.0,49.5,44.1,79,47,25,28.42,28.25,12,4,12,0.00
2013-7-7,90.0,76.1,59.0,54.3,47.8,41.0,74,41,19,28.40,28.21,24,6,28,0.00
2013-7-8,88.0,76.6,62.0,53.2,49.3,43.4,68,41,22,28.52,28.32,16,4,17,0.00
2013-7-9,92.0,78.0,58.0,55.0,48.4,38.4,75,40,16,28.61,28.39,13,5,15,0.00
2013-7-10,92.0,77.1,59.0,56.8,47.9,36.8,72,40,16,28.45,28.20,19,7,21,0.00
2013-7-11,84.0,72.9,62.0,49.7,40.3,27.0,62,34,13,28.40,28.28,22,8,25,0.00
2013-7-12,79.0,69.6,60.0,41.7,36.0,29.3,49,30,18,28.49,28.36,26,6,26,0.00
2013-7-13,81.0,68.5,54.0,49.1,42.6,36.5,75,43,21,28.65,28.49,12,4,12,0.00
2013-7-14,88.0,71.2,48.0,49.0,42.7,36.1,83,42,16,28.63,28.34,15,4,16,0.00
2013-7-15,86.0,74.2,63.0,44.2,38.9,32.9,47,29,16,28.52,28.35,24,8,26,0.00
2013-7-16,94.0,76.7,58.0,51.7,45.4,39.1,64,37,17,28.50,28.24,19,7,24,0.00
2013-7-17,92.0,80.5,65.0,62.0,52.7,47.4,76,41,25,28.59,28.28,22,5,22,0.07
2013-7-18,92.0,78.2,61.0,61.5,53.7,44.7,77,47,21,28.62,28.43,14,4,15,0.00
2013-7-19,96.0,79.3,58.0,57.4,50.4,40.0,79,42,15,28.56,28.33,12,4,14,0.00
2013-7-20,97.0,79.1,60.0,57.5,47.1,32.1,78,39,11,28.45,28.21,17,5,17,0.00
2013-7-21,94.0,79.2,60.0,57.3,47.3,40.8,64,35,17,28.34,28.17,16,5,16,0.00
2013-7-22,95.0,80.0,66.0,61.2,47.9,40.8,53,35,16,28.39,28.24,16,6,16,0.00
2013-7-23,95.0,80.0,60.0,56.5,50.0,40.0,80,40,16,28.50,28.31,12,3,12,0.00
2013-7-24,97.0,79.3,56.0,56.3,48.2,32.7,81,40,12,28.47,28.31,11,3,13,0.00
2013-7-25,96.0,79.6,59.0,55.2,48.8,39.0,77,39,14,28.50,28.35,13,4,14,0.00
2013-7-26,95.0,79.0,58.0,52.6,44.8,34.0,74,35,13,28.63,28.34,13,5,16,0.00
2013-7-27,89.0,77.1,64.0,53.2,43.1,34.4,58,33,16,28.51,28.29,13,6,16,0.00
2013-7-28,85.0,72.2,60.0,51.6,47.7,43.2,67,44,24,28.38,28.25,13,5,16,0.00
2013-7-29,86.0,71.5,55.0,53.4,48.6,41.8,74,48,22,28.43,28.31,11,4,13,0.00
2013-7-30,90.0,75.1,61.0,54.2,47.4,39.3,68,41,19,28.54,28.41,12,4,14,0.00
2013-7-31,93.0,74.9,59.0,55.2,48.6,43.7,63,42,19,28.57,28.38,16,4,19,0.00
2013-8-1,80.0,69.4,60.0,57.6,52.8,45.6,83,57,36,28.44,28.34,25,4,35,0.01
2013-8-2,74.0,64.9,60.0,60.0,58.0,55.9,94,79,56,28.56,28.44,14,5,17,0.21
2013-8-3,81.0,69.1,60.0,59.8,57.5,53.2,95,69,41,28.63,28.50,12,3,14,0.00
2013-8-4,88.0,73.5,57.0,59.1,54.7,47.0,97,57,27,28.58,28.38,12,3,13,0.00
2013-8-5,91.0,78.1,60.0,58.1,54.0,48.2,81,48,24,28.50,28.30,13,4,13,0.00
2013-8-6,93.0,77.5,60.0,58.4,53.1,42.9,87,48,19,28.46,28.29,13,3,15,0.00
2013-8-7,94.0,77.0,58.0,57.0,49.6,40.0,82,44,17,28.44,28.28,15,4,16,0.00
2013-8-8,91.0,77.6,61.0,57.3,51.6,42.6,75,44,20,28.44,28.29,10,3,13,0.00
2013-8-9,96.0,78.6,59.0,59.4,53.2,48.2,81,46,22,28.42,28.20,23,4,24,0.00
2013-8-10,90.0,78.5,66.0,64.6,55.6,51.4,89,48,28,28.44,28.28,31,6,31,0.14
2013-8-11,85.0,74.7,64.0,61.3,57.3,51.6,83,57,34,28.49,28.36,13,5,14,0.00
2013-8-12,89.0,74.6,59.0,59.7,54.9,47.0,92,55,25,28.52,28.36,14,4,14,0.00
2013-8-13,90.0,75.3,59.0,60.5,53.2,45.4,87,51,23,28.55,28.38,12,3,13,0.00
2013-8-14,91.0,75.1,57.0,61.5,51.2,41.5,79,48,18,28.51,28.27,12,4,13,0.00
2013-8-15,89.0,78.0,66.0,57.2,53.5,49.9,68,44,29,28.44,28.31,18,5,23,0.00
2013-8-16,88.0,75.8,67.0,59.5,54.5,48.7,74,50,29,28.50,28.38,11,3,11,0.00
2013-8-17,86.0,74.2,59.0,61.2,54.9,49.7,94,55,31,28.51,28.38,17,5,17,0.00
2013-8-18,87.0,73.9,58.0,58.9,50.9,46.5,78,47,26,28.59,28.40,17,4,19,0.00
2013-8-19,87.0,73.7,59.0,54.8,50.2,44.6,77,46,28,28.53,28.40,20,6,20,0.00
2013-8-20,85.0,71.7,56.0,54.1,45.1,36.4,83,43,19,28.57,28.43,15,4,16,0.00
2013-8-21,87.0,70.7,51.0,50.2,44.1,38.6,81,43,20,28.61,28.40,16,5,16,0.00
2013-8-22,90.0,74.6,56.0,52.3,44.2,39.1,63,37,18,28.47,28.25,13,4,13,0.00
2013-8-23,85.0,74.2,65.0,57.8,53.1,47.9,75,49,32,28.32,28.23,15,4,16,0.00
2013-8-24,83.0,70.2,57.0,56.9,51.5,44.8,85,56,28,28.36,28.22,13,4,13,0.00
2013-8-25,83.0,69.6,60.0,60.0,51.9,43.9,93,58,27,28.45,28.25,40,4,43,0.02
2013-8-26,79.0,67.9,57.0,58.7,54.4,48.4,98,66,38,28.48,28.38,14,4,15,0.00
2013-8-27,86.0,70.8,54.0,55.8,52.4,48.9,91,56,29,28.49,28.26,11,3,12,0.00
2013-8-28,87.0,72.3,57.0,59.6,52.2,48.1,81,53,29,28.37,28.30,13,4,13,0.00
2013-8-29,83.0,73.0,61.0,60.4,55.6,52.2,79,56,36,28.49,28.35,20,4,20,0.00
2013-8-30,82.0,72.3,60.0,58.9,50.8,43.6,79,50,27,28.62,28.49,19,5,19,0.00
2013-8-31,89.0,70.6,50.0,50.3,47.4,43.3,85,49,23,28.62,28.34,13,4,13,0.00
2013-9-1,91.0,74.0,57.0,55.4,47.1,40.0,61,41,21,28.41,28.20,20,6,20,0.00
2013-9-2,85.0,71.3,56.0,58.2,52.8,48.0,79,55,31,28.37,28.26,16,4,17,0.00
2013-9-3,88.0,74.6,63.0,60.0,55.6,48.7,81,55,26,28.44,28.35,17,5,17,0.00
2013-9-4,88.0,74.8,60.0,59.7,54.6,49.7,79,52,28,28.48,28.35,14,4,16,0.00
2013-9-5,87.0,73.1,64.0,63.0,59.3,53.5,88,64,39,28.47,28.28,32,5,32,0.13
2013-9-6,69.0,62.0,56.0,60.0,56.2,52.5,96,82,62,28.64,28.39,21,4,23,0.12
2013-9-7,72.0,60.4,51.0,57.8,54.6,50.2,97,83,57,28.66,28.53,14,4,14,0.00
2013-9-8,81.0,65.2,49.0,57.7,53.5,48.2,97,70,37,28.62,28.43,15,4,15,0.00
2013-9-9,85.0,70.3,54.0,58.1,54.3,49.1,97,62,30,28.54,28.38,10,3,10,0.00
2013-9-10,91.0,72.2,54.0,55.7,51.9,47.2,92,56,24,28.54,28.38,15,4,15,0.00
2013-9-11,96.0,76.2,57.0,53.5,50.8,48.0,79,46,21,28.56,28.38,16,4,16,0.00
2013-9-12,95.0,77.3,60.0,62.5,53.1,47.5,73,47,20,28.50,28.30,9,3,12,0.00
2013-9-13,93.0,74.7,56.0,65.7,55.4,51.8,90,56,25,28.38,28.17,10,3,11,0.00
2013-9-14,91.0,74.6,57.0,59.8,55.0,47.8,87,55,29,28.37,28.21,15,4,17,0.00
2013-9-15,94.0,78.7,62.0,60.2,50.6,44.9,81,40,24,28.28,28.04,50,5,56,0.69
2013-9-18,73.0,66.2,53.0,46.5,41.5,36.2,73,42,29,28.59,28.46,19,6,19,0.00
2013-9-19,77.0,59.1,42.0,46.8,42.4,36.7,94,60,25,28.67,28.41,10,3,10,0.00
2013-9-20,78.0,62.5,45.0,48.4,42.5,35.1,91,53,23,28.42,28.06,13,4,13,0.00
2013-9-21,75.0,64.6,55.0,52.3,47.8,42.2,80,56,32,28.20,28.11,23,6,23,0.00
2013-9-22,66.0,55.4,48.0,52.2,47.8,41.6,95,78,43,28.28,28.17,31,6,32,0.00
2013-9-23,64.0,56.8,46.0,49.4,46.4,43.5,94,69,50,28.45,28.28,20,6,20,0.00
2013-9-24,65.0,56.2,48.0,48.0,42.3,31.0,87,64,28,28.45,28.29,13,4,17,0.00
2013-9-25,67.0,54.1,42.0,45.3,39.8,31.8,96,64,27,28.47,28.31,21,6,22,0.00
2013-9-26,70.0,57.8,49.0,46.3,39.4,33.5,81,54,27,28.58,28.46,22,6,23,0.00
2013-9-27,58.0,50.5,43.0,48.8,43.7,36.0,91,78,55,28.59,28.44,22,4,22,0.00
2013-9-28,66.0,57.9,49.0,55.1,51.3,47.0,97,80,55,28.44,27.96,41,8,41,0.02
2013-9-29,62.0,54.9,48.0,49.1,45.0,41.4,85,70,52,28.19,27.89,34,10,35,0.00
2013-9-30,64.0,55.2,47.0,49.9,41.2,37.7,80,60,41,28.46,27.91,29,11,31,0.01
2013-10-1,60.0,50.5,41.0,42.9,38.6,34.4,87,65,43,28.68,28.46,19,6,20,0.00
2013-10-2,56.0,47.5,39.0,42.8,39.5,35.6,96,75,51,28.69,28.57,13,4,13,0.00
2013-10-3,65.0,51.3,39.0,41.5,37.0,31.7,96,62,30,28.94,28.63,20,4,20,0.00
2013-10-4,64.0,48.0,32.0,41.3,35.4,30.2,94,66,31,29.07,28.93,11,3,11,0.00
2013-10-5,68.0,50.0,34.0,40.4,36.7,31.9,93,64,33,28.98,28.78,13,3,13,0.00
2013-10-6,69.0,50.8,33.0,40.9,36.2,30.7,91,62,27,28.80,28.46,12,3,12,0.00
2013-10-7,67.0,56.6,49.0,42.8,38.2,32.9,68,51,32,28.47,28.38,32,8,32,0.00
2013-10-8,60.0,51.7,40.0,44.2,38.0,32.7,93,61,37,28.58,28.40,22,6,23,0.00
2013-10-9,62.0,48.2,35.0,43.7,38.4,33.7,96,72,38,28.69,28.44,15,4,15,0.00
2013-10-10,65.0,53.4,43.0,43.4,38.7,32.5,91,61,32,28.56,28.39,14,4,15,0.00
2013-10-11,62.0,50.2,40.0,39.4,35.6,32.4,83,60,33,28.67,28.56,12,3,12,0.00
2013-10-12,52.0,46.9,43.0,47.2,42.8,37.2,97,86,74,28.71,28.57,9,2,9,0.00
2013-10-13,64.0,46.8,32.0,44.7,35.3,30.0,96,70,29,28.87,28.71,12,2,12,0.00
2013-10-14,64.0,46.2,31.0,36.5,32.0,28.4,93,63,29,28.98,28.87,13,2,14,0.00
2013-10-15,62.0,44.6,28.0,34.8,31.1,25.7,93,63,30,29.00,28.72,10,3,11,0.00
2013-10-16,67.0,51.0,40.0,43.0,36.5,32.7,80,61,32,28.76,28.65,12,3,12,0.00
2013-10-17,67.0,49.4,34.0,40.0,34.4,30.5,90,60,29,28.85,28.74,16,3,16,0.00
2013-10-18,63.0,45.8,30.0,42.8,35.5,28.7,95,71,39,28.90,28.72,10,3,10,0.00
2013-10-19,64.0,45.2,30.0,40.6,35.5,28.7,95,72,40,28.76,28.63,9,2,9,0.00
2013-10-20,68.0,49.7,33.0,45.1,39.5,31.7,96,72,38,28.77,28.61,11,3,12,0.00
2013-10-21,69.0,50.1,35.0,44.7,40.1,33.7,96,73,37,28.79,28.66,9,3,9,0.00
2013-10-22,70.0,50.4,35.0,46.8,40.5,33.7,96,73,39,28.79,28.61,7,3,9,0.00
2013-10-23,72.0,51.7,37.0,47.0,41.5,36.0,96,73,37,28.73,28.58,13,4,13,0.00
2013-10-24,68.0,49.5,35.0,49.0,41.6,33.7,96,77,44,28.72,28.59,10,3,10,0.00
2013-10-25,65.0,47.5,33.0,48.0,40.4,31.7,96,79,48,28.83,28.69,8,2,8,0.00
2013-10-26,65.0,47.2,34.0,47.3,40.2,32.7,96,80,46,28.89,28.62,13,3,13,0.00
2013-10-27,52.0,45.9,37.0,48.2,41.8,29.8,96,87,51,28.63,28.34,26,8,27,0.03
2013-10-28,53.0,45.4,36.0,32.7,24.5,19.7,64,45,30,28.56,28.45,35,12,37,0.00
2013-10-29,55.0,38.4,24.0,30.2,23.4,19.2,84,57,31,28.63,28.55,10,2,11,0.00
2013-10-30,52.0,35.9,22.0,31.6,25.5,18.6,90,68,40,28.69,28.59,9,2,9,0.00
2013-10-31,64.0,46.4,30.0,42.8,35.5,28.2,94,68,42,28.73,28.59,16,4,16,0.00
2013-11-1,62.0,47.3,34.0,43.7,37.9,32.4,95,72,41,28.82,28.51,13,3,15,0.00
2013-11-2,59.0,48.7,42.0,47.6,37.9,28.7,97,69,40,28.51,28.11,32,9,36,0.26
2013-11-3,53.0,43.2,36.0,35.6,31.0,25.2,88,63,38,28.61,28.38,22,5,22,0.00
2013-11-4,51.0,38.8,28.0,29.1,25.0,20.9,90,60,33,28.75,28.61,14,3,14,0.00
2013-11-5,40.0,36.8,32.0,37.6,33.6,24.6,96,89,64,28.81,28.70,12,3,12,0.08
2013-11-6,44.0,39.9,37.0,38.4,35.8,34.3,96,85,74,28.96,28.81,12,4,12,0.02
2013-11-7,45.0,40.7,38.0,42.4,39.2,37.0,96,94,82,28.82,28.39,15,5,15,0.19
2013-11-8,52.0,45.6,35.0,41.4,37.2,33.2,95,73,54,28.73,28.47,26,8,31,0.00
2013-11-9,48.0,39.8,31.0,41.8,36.3,29.7,95,88,68,28.79,28.68,12,4,12,0.00
2013-11-10,51.0,44.6,41.0,43.0,41.0,39.7,96,88,72,28.83,28.70,16,6,17,0.00
2013-11-11,57.0,45.6,37.0,43.4,39.7,36.0,96,81,58,28.92,28.81,16,5,16,0.00
2013-11-12,53.0,43.0,37.0,44.4,40.5,36.0,96,91,70,28.93,28.81,10,2,11,0.00
2013-11-13,48.0,39.3,34.0,44.9,37.8,32.7,97,94,81,28.97,28.84,9,2,9,0.01
2013-11-14,49.0,37.6,32.0,41.5,35.6,30.7,96,93,74,28.84,28.54,12,2,12,0.00
2013-11-15,46.0,38.3,28.0,36.4,32.7,25.5,95,81,63,28.54,27.87,23,6,23,0.01
2013-11-16,44.0,42.7,42.0,36.9,36.1,35.3,79,77,75,27.87,27.82,22,12,23,0.00
2013-11-19,52.0,43.7,38.0,32.9,27.2,22.4,60,52,44,28.49,28.22,17,7,17,0.01
2013-11-20,40.0,30.2,17.0,22.8,8.1,0.7,75,42,20,29.10,28.49,25,8,26,0.00
2013-11-21,41.0,23.3,12.0,15.3,11.2,8.1,87,63,32,29.30,29.10,10,2,10,0.00
2013-11-22,41.0,23.7,13.0,20.6,14.7,10.3,93,71,38,29.41,29.23,13,3,13,0.00
2013-11-23,41.0,25.0,15.0,22.8,18.1,12.6,93,77,44,29.24,28.95,9,2,9,0.00
2013-11-24,39.0,24.7,15.0,24.0,18.7,13.3,93,80,51,28.99,28.88,7,1,7,0.00
2013-11-25,42.0,26.5,16.0,26.1,20.8,14.3,93,81,52,29.05,28.96,8,1,8,0.00
2013-11-26,40.0,26.6,18.0,28.8,22.7,16.3,94,86,62,28.99,28.79,7,1,7,0.00
2013-11-27,42.0,28.7,20.0,32.7,24.8,18.3,94,86,66,28.83,28.67,9,2,10,0.00
2013-11-28,33.0,25.7,18.0,28.7,23.6,16.3,95,92,80,28.83,28.75,10,2,11,0.00
2013-11-29,31.0,26.6,22.0,29.7,25.1,20.3,95,94,93,28.87,28.83,9,2,9,0.01
2013-11-30,33.0,31.0,29.0,31.7,29.7,27.5,95,95,94,28.91,28.73,9,2,9,0.00
2013-12-1,49.0,37.6,31.0,42.9,35.2,29.7,96,91,70,28.73,28.18,20,4,20,0.01
2013-12-2,47.0,38.5,29.0,39.5,23.7,12.1,75,56,40,28.57,28.18,28,10,28,0.00
2013-12-3,36.0,27.4,17.0,22.4,11.8,5.2,87,53,30,28.89,28.56,31,9,31,0.00
2013-12-4,32.0,18.7,11.0,14.0,9.1,5.7,88,68,37,28.95,28.89,13,4,13,0.00
2013-12-5,22.0,14.0,6.0,11.1,7.8,3.0,91,77,54,28.99,28.89,9,3,9,0.00
2013-12-6,22.0,17.3,10.0,12.6,3.8,-5.4,89,57,36,28.91,28.82,29,10,30,0.00
2013-12-7,22.0,11.7,3.0,1.0,-2.8,-6.3,76,53,30,29.01,28.87,20,5,20,0.00
2013-12-8,20.0,9.9,2.0,4.1,0.1,-3.8,79,65,42,29.17,29.00,10,2,10,0.00
2013-12-9,23.0,13.9,7.0,7.3,3.9,-0.4,82,65,46,29.14,28.99,12,1,12,0.00
2013-12-10,31.0,15.5,8.0,13.1,7.5,2.6,87,72,45,29.08,29.00,9,2,9,0.00
2013-12-11,32.0,21.2,9.0,20.4,15.0,5.4,92,77,60,29.08,28.93,8,1,9,0.00
2013-12-12,29.0,23.9,18.0,22.3,19.8,16.1,93,84,74,28.93,28.73,6,1,6,0.00
2013-12-13,37.0,24.9,15.0,25.0,20.4,13.3,93,84,60,29.02,28.78,7,2,7,0.00
2013-12-14,34.0,27.5,20.0,29.1,24.6,18.3,94,89,82,29.03,28.87,10,2,10,0.00
2013-12-15,42.0,28.1,19.0,33.6,25.3,17.3,95,90,69,28.91,28.78,9,2,9,0.00
2013-12-16,41.0,26.6,18.0,34.0,24.0,16.3,95,90,73,29.00,28.91,8,2,9,0.00
2013-12-17,31.0,24.7,19.0,29.7,23.1,16.3,95,94,93,28.92,28.59,9,2,9,0.00
2013-12-18,34.0,28.3,24.0,31.7,24.4,12.1,95,87,44,28.66,28.48,27,4,27,0.00
2013-12-19,37.0,28.5,22.0,12.6,9.3,5.8,61,45,29,28.86,28.65,24,6,25,0.00
2013-12-20,31.0,25.0,17.0,29.7,20.3,11.3,95,83,55,28.68,28.24,12,3,13,0.00
2013-12-21,36.0,24.5,16.0,26.9,21.4,14.3,94,88,69,28.77,28.41,9,2,10,0.01
2013-12-22,34.0,26.9,17.0,30.8,25.0,15.3,95,93,86,28.88,28.76,8,2,8,0.00
2013-12-23,41.0,33.8,28.0,36.4,30.5,25.9,95,88,63,28.94,28.61,20,3,20,0.03
2013-12-24,46.0,31.3,18.0,33.1,26.1,16.3,94,82,52,29.14,28.94,12,3,12,0.00
2013-12-25,38.0,25.4,15.0,29.1,22.5,13.3,94,89,70,29.15,29.01,10,2,10,0.00
2013-12-26,40.0,26.8,19.0,31.3,24.3,17.3,95,90,69,29.03,28.90,7,1,7,0.00
2013-12-27,31.0,22.8,15.0,29.5,21.1,13.3,95,93,90,28.92,28.68,16,2,16,0.00
2013-12-28,27.0,24.8,22.0,25.5,23.3,20.3,94,94,93,29.10,28.88,9,2,12,0.00
2013-12-29,27.0,25.0,23.0,25.5,23.4,21.3,94,94,93,29.07,28.86,10,2,10,0.00
2013-12-30,33.0,29.2,26.0,30.7,27.7,24.5,95,94,92,28.91,28.73,10,2,10,0.00
2013-12-31,39.0,29.9,24.0,35.5,28.1,22.5,95,93,83,28.95,28.71,12,3,12,0.00
2014-1-1,35.0,29.3,24.0,33.7,28.0,22.5,95,95,94,29.05,28.93,11,4,11,0.00
2014-1-2,32.0,30.4,30.0,30.7,29.1,28.7,95,95,95,28.94,28.43,13,2,13,0.00